Theta_e
344 348 351 354 355 353 358 363 367 360 354 350 356 350 349 348 347 347 348 348 347 350 348 348 348 348 350 350 350 350 350 348 349 354 353 352 351 352 351 352 353 351 350 351
342 348 346 350 353 346 349 356 358 357 353 361 363 355 348 347 348 347 348 347 348 350 349 348 348 349 350 351 352 353 350 350 350 351 352 353 354 351 356 352 350 352 354 351
343 344 342 345 344 345 342 344 352 358 358 353 359 357 361 348 347 346 347 348 346 350 350 351 350 349 348 351 353 353 353 352 352 352 351 351 354 354 350 353 352 350 352 354
346 344 342 340 343 343 342 343 345 350 353 372 356 370 357 361 353 347 347 347 348 349 351 351 350 350 349 350 350 352 353 353 352 351 352 352 353 352 354 350 349 352 352 351
344 345 346 341 341 338 338 337 342 342 346 365 362 363 361 362 362 349 347 348 347 350 349 350 348 349 350 351 351 352 350 352 352 352 352 352 354 354 353 350 347 343 346 356
340 341 340 345 338 338 335 334 338 342 343 348 356 358 363 366 365 361 351 347 348 349 350 349 349 349 349 350 351 355 357 355 354 356 356 352 351 352 351 350 347 344 351 353
336 339 339 335 341 336 333 334 338 342 342 340 336 349 361 351 351 358 357 348 346 347 347 351 351 348 351 349 351 353 352 339 351 354 354 355 356 353 352 351 350 349 348 344
332 331 334 335 336 338 338 336 337 345 342 342 342 353 361 356 355 354 351 351 349 346 345 345 347 349 351 352 357 355 352 348 353 355 350 345 344 340 338 336 333 337 333 335
327 327 329 337 333 336 341 340 337 338 338 339 340 356 356 355 351 349 348 355 356 356 355 357 356 356 352 350 350 347 346 346 344 343 343 338 335 333 336 333 336 335 336 336
326 326 328 332 331 332 338 336 335 335 341 340 337 349 346 357 354 362 363 360 357 351 350 348 346 345 347 343 343 342 341 342 340 342 338 337 334 335 335 337 338 336 337 337
325 325 326 329 329 329 332 332 333 335 335 337 336 346 353 355 357 362 355 351 349 347 345 343 341 339 337 336 333 331 330 330 327 328 327 327 329 329 329 329 329 328 328 330
325 324 325 327 329 328 327 329 330 335 340 334 333 343 349 357 357 356 347 340 339 340 340 339 338 337 334 328 329 324 325 323 322 319 321 321 322 323 323 323 324 323 323 323
325 324 323 325 328 328 327 328 329 329 329 331 331 346 355 357 355 351 347 339 334 333 331 330 329 328 325 324 323 322 322 321 320 322 322 323 325 323 321 323 323 323 323 324
325 325 326 324 330 331 329 328 327 327 327 327 328 357 356 354 352 347 342 338 334 332 331 329 328 324 321 319 319 320 321 324 325 323 324 322 323 323 323 323 322 323 322 322
324 324 326 326 328 329 329 329 327 327 327 327 330 328 355 350 345 343 339 335 334 332 328 328 327 326 324 324 324 322 323 323 322 323 323 323 323 323 323 323 322 322 322 322
325 328 326 328 328 328 328 329 329 327 326 326 327 343 350 346 342 340 338 335 333 331 330 330 329 326 324 324 324 322 323 323 323 323 323 323 323 322 322 322 321 321 321 321
325 326 331 331 330 329 326 327 327 327 327 328 328 346 348 346 343 340 338 334 331 329 327 328 326 325 324 323 322 322 322 322 323 323 322 322 323 322 322 321 321 321 320 320
328 333 335 333 335 333 332 330 328 329 328 328 328 330 343 344 341 338 334 331 328 326 326 327 325 324 323 322 321 322 322 322 322 323 322 322 322 322 322 322 321 320 320 319
327 329 329 333 338 334 335 333 329 329 335 332 330 331 338 338 338 334 332 328 326 326 325 324 324 323 322 321 321 321 323 323 323 323 323 323 323 323 322 323 322 320 321 320
329 330 330 334 335 335 337 332 328 326 332 331 331 331 333 333 336 335 329 327 325 323 323 322 321 322 322 322 322 323 323 323 323 323 323 323 323 323 324 323 324 323 321 321
329 329 329 329 331 331 331 329 326 327 337 330 330 332 333 334 335 332 328 326 323 322 321 320 319 319 321 321 321 322 323 323 322 323 324 324 324 324 324 324 324 323 322 320
330 331 334 332 336 338 331 330 331 334 330 328 329 329 335 334 333 331 327 326 323 322 320 318 319 319 320 320 320 322 323 322 323 324 324 324 324 324 323 323 322 322 320 319
331 336 341 340 340 334 330 331 329 328 328 327 327 326 327 333 330 328 327 325 322 322 321 320 319 319 319 319 320 321 322 323 324 324 324 324 323 323 323 324 322 320 319 317
332 332 328 332 334 332 329 328 327 325 325 325 325 324 325 327 331 330 330 328 324 321 320 320 319 319 319 318 321 321 322 323 323 323 323 323 321 321 322 321 320 319 318 318
333 330 328 329 333 329 327 327 327 327 326 326 324 324 324 325 326 331 329 326 323 322 320 319 318 318 318 320 322 322 322 323 323 323 323 321 322 319 319 320 318 318 318 318
329 329 328 332 334 330 331 328 326 326 325 326 326 326 325 324 325 326 325 325 323 320 319 319 319 319 320 321 321 322 323 324 323 323 322 321 321 321 319 317 317 317 317 317
Wind_Speed
17 11 13 13 10 12 10 22 16 20 8 17 20 18 19 18 19 17 15 15 14 17 18 17 22 19 28 27 27 23 15 20 17 14 11 9 12 9 2 1 3 5 6 5
12 12 8 11 18 8 13 12 9 15 14 18 7 13 9 15 17 17 18 15 17 18 16 19 16 21 21 20 20 18 19 15 17 13 14 2 5 4 5 5 6 7 6 11
14 7 4 6 12 15 12 11 8 14 15 18 12 7 19 13 14 14 18 19 17 21 19 17 20 20 24 26 24 23 21 19 18 15 11 4 3 1 2 6 10 14 18 15
12 15 4 11 12 11 15 8 7 13 12 6 2 4 11 10 7 16 12 15 18 19 20 16 21 21 25 26 27 25 21 19 17 14 10 9 7 5 5 8 7 6 7 10
18 14 10 11 14 9 16 5 10 13 13 23 19 4 10 10 9 16 18 17 16 21 19 20 23 24 26 27 27 30 28 26 21 19 15 10 10 3 6 10 6 8 15 12
17 11 5 10 15 5 14 7 11 13 14 12 15 13 12 13 13 12 14 18 18 18 19 19 26 24 22 21 14 23 23 19 17 12 8 10 4 4 5 4 7 13 17 12
18 18 10 11 16 10 11 12 8 7 10 10 14 13 11 20 23 18 25 21 16 16 14 15 12 17 15 15 13 12 20 17 15 7 5 4 9 9 7 7 7 9 15 15
14 15 21 13 15 15 12 15 13 13 11 5 15 7 13 18 23 24 6 21 18 16 15 12 17 20 17 14 19 22 30 26 16 15 11 12 16 14 12 10 9 8 10 12
16 18 15 22 14 17 18 13 17 22 20 14 10 10 10 12 10 8 8 19 19 21 20 16 25 24 29 24 22 23 24 20 17 16 13 12 15 14 11 7 5 5 12 13
16 15 14 10 4 12 17 16 9 10 17 14 9 13 7 16 11 19 20 19 20 19 20 15 26 24 24 24 19 20 19 17 13 6 8 7 11 11 10 9 9 9 11 13
12 15 18 11 8 13 10 11 17 15 12 10 12 4 15 18 15 18 17 16 17 15 16 16 21 22 23 21 19 18 18 17 16 15 16 15 13 13 13 8 8 12 13 16
10 13 13 16 17 17 17 17 15 12 17 14 13 4 12 18 16 18 15 13 14 16 15 14 17 18 19 19 16 15 14 13 14 14 15 16 17 17 14 17 12 12 16 18
4 10 13 16 7 6 11 16 14 14 10 13 10 7 17 19 14 13 15 13 12 13 13 11 14 15 16 13 12 12 11 8 11 14 21 21 21 14 16 15 15 17 19 18
1 11 14 13 6 10 7 17 18 15 11 13 12 18 15 15 17 14 12 12 12 13 12 10 9 13 13 10 7 4 3 5 7 9 6 7 7 10 11 15 17 17 19 23
7 13 18 16 4 6 5 8 17 9 12 10 4 12 21 18 13 14 13 13 13 13 12 11 9 12 15 12 10 7 5 4 5 4 3 4 5 6 9 11 13 15 18 20
13 12 16 11 4 8 7 8 5 8 8 8 12 15 17 20 18 17 15 14 13 11 11 11 12 12 10 8 7 5 4 4 3 2 2 1 2 4 6 9 13 18 21 23
17 13 11 8 2 11 9 7 4 11 1 5 3 15 15 16 19 17 17 16 15 14 13 11 11 11 10 7 5 4 3 1 1 1 1 3 5 6 8 11 13 15 17 20
11 2 4 3 12 4 10 12 11 9 6 8 7 5 16 14 10 11 14 15 12 13 11 9 10 9 7 6 5 2 3 3 4 4 4 6 7 9 10 12 12 16 17 21
4 4 5 5 19 5 18 15 16 11 11 9 5 4 11 8 17 11 10 13 11 11 13 10 10 9 6 7 6 5 5 5 6 7 8 9 10 13 15 17 17 18 17 19
12 5 9 6 10 1 6 11 8 5 5 8 6 3 5 5 8 7 13 13 14 15 14 14 12 11 9 6 5 5 6 7 10 9 11 13 15 16 18 21 20 19 18 20
2 4 6 6 4 4 3 9 4 7 5 5 8 7 8 6 8 11 11 10 13 11 9 8 7 7 8 6 7 7 8 10 10 12 13 15 17 20 21 23 19 21 17 19
2 3 5 6 6 4 16 16 4 6 6 6 7 7 11 11 11 11 10 8 11 9 9 6 6 7 6 7 8 10 11 11 11 14 15 17 18 22 22 23 24 21 20 18
1 5 6 6 5 7 17 9 6 5 4 5 4 4 4 15 12 11 9 8 8 7 7 7 7 7 8 9 10 9 11 11 14 15 18 19 22 25 27 25 26 19 14 20
13 9 1 5 8 14 8 7 5 1 4 3 4 5 4 5 7 11 10 8 8 7 7 8 9 9 7 7 8 10 14 15 15 17 19 19 23 26 27 20 16 13 17 19
8 5 1 2 8 5 6 8 7 7 2 3 3 3 5 4 2 11 8 6 6 7 7 7 8 7 9 9 10 12 13 14 17 17 18 22 24 17 23 17 13 15 21 20
9 6 3 5 9 0 8 6 2 2 2 4 3 5 4 2 2 9 5 9 6 6 7 8 8 9 9 10 11 12 14 14 15 16 18 21 23 22 22 16 21 21 24 28
Wind_Direction
190 215 231 105 98 148 191 164 194 206 217 193 167 154 156 184 169 167 162 164 168 152 158 152 149 153 159 169 177 183 185 158 166 171 190 213 208 228 290 23 320 150 210 225
238 236 223 130 149 172 213 221 208 159 216 101 32 5 183 192 176 168 167 164 170 151 158 153 155 151 163 165 173 177 185 167 174 195 212 181 32 125 325 223 233 304 247 240
257 310 340 192 207 222 245 226 181 116 108 50 103 353 340 202 193 166 170 172 177 159 164 157 166 172 162 166 176 184 187 185 191 199 209 211 202 290 272 74 12 273 230 239
251 278 302 280 261 270 291 349 166 174 202 138 4 125 282 268 251 163 200 172 172 166 164 166 170 181 169 171 175 180 186 185 197 214 222 207 199 235 45 24 293 9 279 252
266 234 263 256 276 325 295 358 272 275 247 130 214 186 188 223 280 183 188 175 184 166 174 178 183 177 178 180 174 173 185 192 194 203 218 228 222 18 18 349 299 238 284 270
251 282 334 288 307 257 300 309 261 281 268 263 193 199 189 185 193 236 235 171 188 174 174 181 180 177 183 184 181 169 176 189 192 178 202 238 237 294 323 319 331 288 289 347
255 246 213 238 263 268 261 269 250 231 239 252 274 194 160 180 197 209 244 174 182 172 168 171 162 168 144 128 139 136 124 73 270 164 170 147 102 69 41 21 6 338 338 351
231 243 217 185 231 247 221 259 267 264 251 42 347 65 145 154 173 191 153 166 177 173 179 179 138 150 143 110 84 114 131 159 141 118 106 99 97 86 57 44 37 359 334 332
267 267 273 200 202 237 259 231 258 280 287 290 199 101 113 139 144 131 145 72 69 59 65 79 96 92 79 78 83 95 98 105 104 96 95 77 78 86 82 81 41 5 340 338
254 285 293 126 192 238 255 276 290 248 276 291 275 178 188 164 157 87 79 87 93 76 82 75 87 86 91 89 86 86 85 89 74 76 45 64 62 58 60 40 26 11 341 328
220 246 270 218 182 256 225 255 268 277 283 262 266 74 146 147 123 104 96 93 80 89 91 86 88 81 78 83 73 71 68 61 56 56 56 46 40 37 28 6 359 3 335 329
212 262 259 251 204 209 243 263 237 240 259 271 285 76 98 112 112 109 112 99 92 83 82 86 85 83 76 64 82 71 62 52 46 44 42 51 32 21 12 355 345 329 319 319
198 234 254 263 182 189 225 243 260 287 290 284 272 125 105 105 108 113 121 115 108 102 91 83 64 78 76 78 77 76 81 74 70 50 19 2 351 346 349 335 340 346 330 332
346 274 267 256 334 312 263 231 246 254 265 275 280 122 125 124 128 122 119 120 122 117 116 112 99 103 106 115 115 106 67 29 46 23 60 319 357 348 334 332 334 334 331 330
235 251 278 285 326 274 2 315 228 215 248 290 332 332 149 148 144 134 134 136 131 129 131 139 143 156 159 158 160 145 120 95 95 71 72 343 339 312 321 326 327 332 329 326
226 234 253 275 342 285 256 175 256 329 327 318 335 42 112 128 130 139 145 145 147 155 160 166 157 138 134 131 134 125 118 108 108 126 174 206 305 327 333 335 338 332 329 329
232 226 246 279 215 349 211 260 315 244 109 11 352 114 141 129 148 150 157 154 150 145 132 133 140 138 140 139 148 146 131 132 155 217 258 306 306 313 323 327 328 329 326 329
221 13 82 86 347 225 25 36 14 12 21 26 2 67 93 138 123 148 151 129 137 133 136 132 136 148 155 146 149 160 166 202 235 241 261 280 289 294 296 305 316 320 323 330
164 254 263 189 205 109 360 333 18 15 55 42 22 74 113 117 135 135 122 120 131 137 136 147 158 149 156 159 183 216 242 249 266 280 289 291 297 304 307 304 300 306 304 312
58 63 297 53 313 307 153 231 277 313 100 49 54 87 114 133 210 136 115 118 129 149 161 169 177 178 187 182 216 239 258 269 277 297 300 297 293 288 284 284 285 283 284 295
136 320 264 276 306 30 58 160 276 255 89 86 86 70 94 77 84 101 105 123 133 140 160 168 176 210 182 196 223 254 272 277 293 296 297 299 294 290 288 289 286 285 286 298
97 272 0 336 353 357 328 315 344 110 137 119 123 126 111 114 119 132 138 130 134 156 155 196 205 221 216 223 238 251 260 277 287 290 287 287 295 289 287 288 293 293 296 294
111 11 164 144 223 213 252 103 95 87 100 83 55 45 121 144 153 154 141 145 164 189 198 218 231 239 242 250 247 268 280 289 289 294 297 296 295 289 283 279 283 285 303 311
332 339 80 188 163 202 135 102 98 50 48 81 39 358 333 252 161 154 147 154 173 193 222 236 243 242 260 268 275 285 289 291 294 298 296 295 290 284 285 285 276 287 311 304
178 208 50 218 137 142 182 151 152 132 65 360 325 311 311 326 351 120 130 152 184 213 224 238 254 264 267 272 273 285 299 302 301 301 299 293 292 314 302 310 316 308 303 300
169 164 205 82 114 114 112 110 113 143 224 220 247 301 293 264 315 143 151 154 195 233 228 229 243 247 265 277 293 298 297 291 289 299 312 309 304 302 306 316 308 301 296 302